Historyczne dane pomiarowe

Dodano dane terminowe – wersja testowa.

Dane z okresu 1951-2019

Wersja bazy: 1.34 [2019-03-16, lista zmian], aktualizacja planowana na 2019-04-15

Dane meteo z obszaru Polski uzyskane na podstawie danych udostępnionych przez Instytut Meteorologii i Gospodarki Wodnej – Państwowy Instytut Badawczy.

 

Wybierz Datę:    

       

TemperaturaWilgotnośćWiatrCiśnienieOpadyŚniegCzas trwania zjawisk
 Stacja t tx tn tng RH VA  wxwx mslp ppp RRR   cm mm wxwxwxwxwxwxwx
2019-09-30 4.2 7.4 2.0- 99.8 8.3 7.6 25.0 24.0 21.5- 823.7 12.7 12.2 0.0- 0.0 0.0 7.1-- 23.2---
2019-09-29 5.0 6.5 3.1- 98.0 8.5 7.4 12.0 15.4 4.8- 829.7 14.1 0.9 13.2- 0.0 1.2 3.0-- 16.5---
2019-09-28 5.0 7.6 3.6- 99.0 8.6 7.6 10.8 16.1 4.5- 834.8 3.8 2.8 1.0- 0.0 2.5 3.6-- 24.0---
2019-09-27 7.2 8.1 6.0-100.0 10.1 7.8 7.9 0.0 0.0- 834.8 9.3 3.4 5.9- 0.0 0.0 16.7-- 22.4---
2019-09-26 5.5 7.0 3.5- 95.5 8.6 6.8 9.5 6.9 0.0- 834.4 2.0 0.0 2.0- 0.0 6.4--- 10.1---
2019-09-25 6.0 6.9 5.4- 99.8 9.3 7.9 7.8 6.5 1.7- 830.7 4.0 3.8 0.2- 0.0 0.0 7.5-- 23.5---
2019-09-24 7.1 8.7 6.5- 97.6 9.8 6.6 4.1 0.0 0.0- 835.9 0.0 0.0 0.0- 0.0 0.1 0.3-- 11.0---
2019-09-23 6.4 9.4 3.7- 80.0 7.8 4.9 8.3 10.0 0.0- 835.9 0.0 0.0 0.0- 0.0 3.7--- 1.5---
2019-09-22 8.3 12.3 4.8- 58.8 6.4 1.0 7.9 8.8 0.0- 838.5 0.0 0.0 0.0- 0.0 10.4-------
2019-09-21 7.6 10.9 0.2- 67.9 7.0 1.5 4.5 1.0 0.0- 843.9 0.0 0.0 0.0- 0.0 10.6-------
2019-09-20 0.1 1.3 -1.4- 95.9 5.9 5.8 9.6 8.8 0.5- 844.4 0.0 0.0 0.0- 0.0 5.3--- 6.7---
2019-09-19 -1.1 0.0 -2.0- 96.4 5.4 7.4 13.4 22.6 8.0- 841.9 0.7 0.7 0.0- 0.0 4.0- 0.3- 15.0---
2019-09-18 -1.0 1.0 -3.6- 92.0 5.2 4.1 19.3 24.0 10.7- 837.1 0.3 0.2 0.1- 0.0 7.6- 0.2- 10.0---
2019-09-17 1.2 6.5 0.3-100.0 6.7 6.8 20.3 24.0 12.8- 833.2 1.4 1.0 0.4- 0.0 4.4 1.7 0.8- 24.0---
2019-09-16 6.6 10.7 5.2- 93.4 9.1 7.4 16.3 22.8 9.2- 838.3 8.0 7.3 0.7- 0.0 1.0 5.5-- 19.7---
2019-09-15 7.9 11.7 4.3- 81.6 8.7 4.8 13.1 22.0 5.2- 844.0 0.1 0.0 0.1- 0.0 7.6--- 7.3---
2019-09-14 3.9 8.5 1.5- 87.5 7.0 4.6 8.1 9.7 1.8- 850.0 0.0 0.0 0.0- 0.0 8.8--- 6.3---
2019-09-13 8.1 9.9 7.0- 99.9 10.8 7.1 11.1 21.9 1.5- 849.7 0.3 0.0 0.3- 0.0 3.5 0.8-- 20.7---
2019-09-12 7.6 9.8 5.9- 89.3 9.4 5.9 8.1 12.5 0.0- 848.3 0.0 0.0 0.0- 0.0 6.7--- 6.8---
2019-09-11 7.1 10.3 4.3- 71.8 7.1 6.1 6.1 1.2 0.0- 844.2 0.0 0.0 0.0- 0.0 6.7--- 11.1---
2019-09-10 3.7 5.4 2.3- 97.6 7.8 6.8 9.5 9.2 5.4- 837.2 0.1 0.0 0.1- 0.0 2.1 3.3-- 14.2---
2019-09-09 6.2 7.4 4.5- 98.0 9.3 8.0 8.4 7.1 2.2- 832.0 14.6 7.9 6.7- 0.0 0.0 12.4-- 24.0---
2019-09-08 3.7 5.5 1.8- 94.6 7.6 7.1 6.1 6.8 0.0- 837.8 17.1 0.0 17.1- 0.0 1.8 3.6-- 10.4---
2019-09-07 5.5 7.2 4.2- 92.4 8.3 7.9 2.5 0.0 0.0- 839.0 1.9 1.5 0.4- 0.0 0.0 12.8-- 18.1---
2019-09-06 4.4 7.6 1.9- 95.1 8.0 6.9 5.9 3.2 0.2- 842.8 3.2 0.0 3.2- 0.0 2.5--- 8.5---
2019-09-05 8.5 11.2 6.4- 75.8 8.4 4.1 7.9 9.2 0.8- 838.5 0.3 0.0 0.3- 0.0 6.2--- 3.9---
2019-09-04 9.1 11.6 7.0- 65.6 7.6 1.9 8.8 8.0 0.0- 841.1 0.0 0.0 0.0- 0.0 11.5-------
2019-09-03 6.1 9.3 3.6- 72.8 6.8 4.3 5.9 2.2 0.0- 844.2 0.0 0.0 0.0- 0.0 7.9 0.6------
2019-09-02 6.1 15.8 2.9- 94.8 9.1 7.6 10.6 17.3 0.0- 840.9 6.1 6.1 0.0- 0.0 0.1 7.9-- 15.1---
2019-09-01 14.5 18.4 12.1- 79.0 12.8 4.4 8.6 9.8 3.2- 838.4 4.0 0.1 3.9- 0.0 6.9 1.6-- 4.9-- 1.4
2019-08-31 15.6 18.5 13.6- 70.9 12.6 1.1 7.3 7.5 1.5- 844.0 0.0 0.0 0.0- 0.0 11.5-------
2019-08-30 15.2 17.5 13.2- 73.0 12.6 4.4 3.4 0.0 0.0- 847.5 0.0 0.0 0.0- 0.0 6.9 0.1----- 1.1
2019-08-29 15.8 18.8 13.3- 65.3 11.7 4.8 5.1 0.0 0.0- 844.7 2.9 2.9 0.0- 0.0 5.4 1.7----- 5.4
2019-08-28 14.8 17.4 13.0- 88.8 14.8 6.9 8.3 7.8 0.0- 843.2 0.0 0.0 0.0- 0.0 6.6--- 8.8---
2019-08-27 13.5 15.3 11.6- 92.3 14.3 6.5 11.1 19.3 0.0- 844.5 0.0 0.0 0.0- 0.0 2.5--- 14.8---
2019-08-26 15.0 18.2 13.0- 78.4 13.3 5.9 7.8 4.5 0.0- 846.1 0.0 0.0 0.0- 0.0 7.2 0.2----- 2.2
2019-08-25 14.9 18.0 12.4- 78.9 13.3 5.9 4.9 3.5 0.0- 846.7 0.0 0.0 0.0- 0.0 5.6-------
2019-08-24 12.0 15.3 9.7- 97.1 13.6 6.0 7.0 8.1 0.0- 847.1 0.0 0.0 0.0- 0.0 2.2--- 15.3---
2019-08-23 9.5 13.4 6.4- 96.6 11.6 4.4 5.0 2.0 0.0- 848.4 0.0 0.0 0.0- 0.0 6.1--- 12.0---
2019-08-22 7.1 8.7 5.3- 96.1 9.7 6.0 7.5 5.3 0.0- 848.2 0.0 0.0 0.0- 0.0 1.0--- 17.0---
2019-08-21 6.5 10.9 4.9- 96.5 9.3 6.0 11.5 9.3 6.5- 846.5 0.7 0.7 0.0- 0.0 4.9 6.5-- 14.3---
2019-08-20 10.7 13.8 9.7- 89.4 11.5 7.1 5.6 4.5 2.5- 844.1 15.5 6.1 9.4- 0.0 0.7 10.0-- 12.3---
2019-08-19 11.8 16.8 9.6- 85.6 11.6 7.1 9.1 8.5 1.2- 840.3 7.0 7.0 0.0- 0.0 0.0 3.2-- 11.8---
2019-08-18 12.8 17.4 8.5- 83.5 12.2 5.1 9.4 10.8 0.8- 835.7 5.1 0.1 5.0- 0.0 7.8 0.9-- 5.0---
2019-08-17 8.4 10.6 6.3- 91.0 10.0 5.9 7.1 5.6 0.0- 837.9 0.0 0.0 0.0- 0.0 0.9 1.2-- 0.7---
2019-08-16 7.5 8.7 6.6- 94.3 9.7 6.3 6.4 2.0 0.0- 838.8 4.1 4.1 0.0- 0.0 2.9 0.2-- 14.5---
2019-08-15 7.6 11.3 5.4- 71.8 7.5 3.9 6.0 0.0 0.0- 837.8 0.4 0.1 0.3- 0.0 8.3 0.4-- 0.5---
2019-08-14 6.0 8.2 4.0- 76.8 7.1 5.6 7.0 5.1 0.0- 839.3 2.0 2.0 0.0- 0.0 6.6 0.7------
2019-08-13 8.2 11.0 6.3- 86.8 9.4 7.0 9.3 6.8 0.7- 838.6 0.1 0.1 0.0- 0.0 6.9 2.5-- 5.3---
2019-08-12 10.9 15.5 8.8- 94.0 12.3 7.1 6.6 4.3 1.0- 839.3 5.8 5.2 0.6- 0.0 0.9 6.9-- 14.2-- 1.1
2019-08-11 11.6 14.8 8.6- 78.6 10.7 2.9 10.5 11.8 3.2- 841.4 3.8 0.0 3.8- 0.0 13.2 0.2-- 1.2-- 0.1
2019-08-10 12.0 15.6 8.6- 92.3 13.0 7.4 13.5 22.0 7.3- 838.3 2.0 2.0 0.0- 0.0 1.1 5.2-- 19.5---
2019-08-09 12.4 16.0 9.6- 69.4 9.9 5.8 10.5 12.7 2.3- 838.7 3.1 0.0 3.1- 0.0 11.3-------
2019-08-08 9.9 12.8 7.7- 85.3 10.4 5.9 10.5 10.3 3.5- 836.0 0.0 0.0 0.0- 0.0 10.5--- 4.2---
2019-08-07 11.7 14.5 10.2- 90.6 12.4 7.3 8.5 8.1 1.8- 833.7 2.3 1.2 1.1- 0.0 4.2 6.9-- 12.7-- 1.1
2019-08-06 12.5 15.8 10.6- 83.4 12.0 6.1 8.9 12.1 0.0- 836.7 3.2 2.8 0.4- 0.0 7.0 1.0----- 1.0
2019-08-05 10.7 14.1 8.7- 81.0 10.4 5.4 8.6 11.0 0.0- 837.8 3.7 3.5 0.2- 0.0 7.0 3.3------
2019-08-04 8.8 11.4 6.5- 85.6 9.7 4.6 6.3 1.6 0.0- 839.1 0.9 0.8 0.1- 0.0 4.9 0.8------
2019-08-03 7.5 9.4 5.7- 93.6 9.7 6.3 9.9 17.1 0.0- 836.4 1.9 1.7 0.2- 0.0 2.2 2.3-- 12.0---
2019-08-02 9.0 10.8 7.6- 86.4 9.9 5.6 6.9 0.0 0.0- 838.1 0.2 0.0 0.2- 0.0 5.9-------
101.3 ms

 

Źródłem pochodzenia danych jest Instytut Meteorologii i Gospodarki Wodnej – Państwowy Instytut Badawczy. Dane Instytutu Meteorologii i Gospodarki Wodnej – Państwowego Instytutu Badawczego zostały przetworzone.

Dane źródłowe można odnaleźć na stronie https://dane.imgw.pl